Volver al catálogo

SL-3 R/B

ActivoPO
NORAD 6393·ROCKET BODY·🇷🇺 Russia

Lanzado Mar 20, 1973 desde Plesetsk Cosmodrome

Loading…

Próximos Pases (próximas 24 horas)

TLE

ActualizadoSource: Space-Track

Época: Sep 14, 2026, 08:07 UTC

1 06393U 73015B   26257.33864012  .00000037  00000-0  14570-4 0  9997
2 06393  81.2538 293.1547 0058785 150.4542 209.9970 14.05448841740854

Sigue SL-3 R/B en tiempo real con AllMySat

Download on the App Store